Theta_e
317 317 316 316 315 315 315 315 314 314 313 313 313 313 313 313 313 313 313 313 313 313 313 313 313 313 313 313 313 313 313 313 313 313 314 314 315 315 316 316 317 317 317 318 319 320 320 321 323 324 326 328 331 334 335 336 336 336 336 336 335 335 336 337 337 336 335 335 336 336 335 335 334 333 335 335 334 335 335 335 335 336 336 337 337
317 316 315 315 315 315 315 315 314 314 313 312 312 313 313 313 313 313 313 313 313 313 313 312 312 312 312 312 312 311 311 312 312 312 313 313 313 314 315 316 316 316 316 317 317 318 319 320 321 322 324 325 328 330 333 334 334 335 336 335 334 333 334 336 337 336 336 336 336 337 336 336 336 335 336 336 334 334 334 334 335 336 336 336 336
316 316 315 314 314 314 314 314 314 313 312 312 312 312 312 312 312 312 312 312 312 312 312 312 311 311 311 310 310 310 310 311 311 311 311 311 312 312 313 314 315 315 316 316 316 316 317 319 320 321 322 324 326 327 329 331 333 334 335 335 334 332 332 335 336 336 336 336 336 336 336 336 337 336 336 334 332 333 335 334 334 334 335 335 336
316 315 315 314 314 314 314 314 313 312 312 312 312 312 312 312 312 312 312 312 311 311 311 310 310 310 310 310 309 309 309 310 310 310 310 310 311 311 312 312 313 314 315 315 315 315 316 317 319 320 321 322 324 325 327 329 331 334 334 333 333 334 334 336 336 335 336 336 335 336 336 336 336 336 336 335 334 335 336 336 335 334 334 334 335
315 315 315 314 314 313 314 313 312 311 311 311 311 311 311 311 311 311 310 310 310 309 309 309 309 309 309 309 309 309 308 309 308 309 309 309 310 310 311 311 312 313 314 314 315 315 316 316 317 319 320 321 322 324 326 327 329 332 333 332 332 334 335 335 335 335 336 336 336 335 336 336 336 336 336 336 336 337 337 336 336 336 335 334 334
315 315 315 314 313 313 313 312 311 311 311 310 310 310 310 310 310 309 309 309 308 308 308 308 308 308 308 308 308 308 308 308 309 309 308 309 309 310 310 311 310 310 311 312 312 313 314 315 315 316 317 318 319 321 323 325 327 329 331 331 332 332 332 332 332 332 333 335 336 336 336 336 336 336 336 337 337 337 337 336 335 336 335 335 334
315 315 314 314 313 313 312 311 311 311 310 310 309 309 309 309 309 308 308 308 308 308 308 308 308 308 308 308 308 308 308 308 308 308 308 308 309 308 308 308 308 308 308 309 309 310 311 312 313 313 314 315 316 318 320 323 323 324 325 327 329 330 330 330 330 330 332 334 336 337 336 336 335 335 335 336 337 337 336 335 335 334 335 335 335
315 315 314 313 313 312 311 311 311 310 310 309 309 309 309 308 308 308 308 307 307 307 307 307 307 307 307 307 307 307 307 307 307 307 307 307 306 306 305 305 306 306 306 306 307 307 308 309 310 311 312 313 314 315 316 317 318 319 322 324 326 328 329 330 330 331 332 333 334 335 336 336 336 336 336 336 337 337 336 335 334 334 334 334 335
315 314 314 313 312 310 310 310 310 310 309 308 308 308 308 308 307 307 306 306 306 306 306 306 305 305 305 305 305 305 305 306 306 306 306 305 304 303 303 304 304 304 304 305 305 305 306 307 308 309 310 311 311 312 313 313 314 318 322 324 326 327 328 329 329 330 330 330 331 332 333 334 335 335 336 337 337 336 336 336 335 335 335 335 335
314 314 313 312 310 310 310 310 310 309 308 308 308 308 307 307 306 306 306 306 306 306 305 305 304 304 304 304 304 304 304 305 305 305 304 303 302 301 300 301 301 302 303 303 303 304 304 305 306 307 308 309 310 311 313 314 315 319 321 322 324 327 328 329 328 328 329 329 329 330 331 332 333 333 335 337 337 336 336 336 336 336 336 336 336
313 313 312 310 309 310 310 310 309 308 308 308 307 307 307 306 305 306 306 306 305 305 305 304 304 304 303 303 303 303 304 304 304 303 303 302 300 299 298 299 300 300 301 301 302 302 302 303 304 305 306 307 309 311 313 315 316 317 319 321 323 326 327 328 328 328 329 329 328 328 330 332 333 333 334 335 334 335 335 336 337 337 336 336 336
312 311 310 309 310 310 310 309 308 308 307 307 307 307 306 305 305 306 305 305 305 304 304 304 303 303 303 302 302 302 302 303 302 302 301 300 298 297 297 298 299 299 300 300 300 301 301 302 302 303 304 306 308 310 312 314 314 316 319 321 322 324 325 326 327 327 328 328 328 328 329 330 332 333 333 333 332 334 335 336 337 337 336 336 336
311 310 310 309 310 310 309 309 308 307 307 307 307 306 305 305 306 305 305 304 304 303 303 303 302 302 302 302 302 301 301 301 301 300 299 298 297 297 297 297 298 299 299 299 300 300 301 301 302 303 304 306 308 310 312 313 315 317 320 321 322 323 324 324 325 326 327 327 327 327 328 329 330 332 333 333 333 333 333 334 336 335 335 336 336
310 310 309 309 310 309 309 308 307 307 306 306 306 305 305 305 305 305 304 304 303 303 303 302 302 301 301 301 301 301 301 300 300 299 298 298 297 296 296 297 297 298 298 299 299 300 301 302 302 304 305 306 307 309 311 313 314 316 319 320 321 322 323 323 324 324 325 326 326 328 329 330 331 331 331 332 332 332 331 332 334 334 334 335 335
310 309 309 309 309 308 308 307 307 306 306 306 305 305 305 305 305 304 304 303 303 303 302 302 301 301 301 300 300 300 300 300 299 298 297 296 296 295 295 296 296 297 297 298 299 299 300 301 302 303 304 305 307 308 310 311 312 314 317 319 320 321 322 322 323 323 324 326 327 329 330 330 330 330 330 330 331 331 332 332 333 333 333 332 332
310 309 309 309 308 308 307 307 306 306 306 305 305 304 304 304 304 304 303 303 303 302 302 302 301 300 300 300 299 299 299 299 298 297 296 295 294 294 294 295 295 296 296 297 297 298 299 300 301 302 303 305 307 308 308 308 310 312 315 317 320 321 322 323 323 323 323 324 325 328 329 329 329 330 330 330 330 331 331 332 333 333 332 332 332
310 309 309 309 308 307 307 306 306 306 305 305 304 304 304 304 304 303 303 302 302 302 302 301 300 300 300 299 299 299 298 298 297 296 295 294 293 293 293 293 294 294 294 295 296 296 297 299 300 302 303 304 305 306 306 307 308 310 313 316 317 319 320 321 322 322 323 324 325 326 327 328 329 329 331 331 331 330 330 330 331 332 332 332 333
309 309 309 308 307 307 306 306 306 305 305 305 304 304 304 304 303 303 302 302 302 302 301 301 300 300 300 299 299 298 297 297 296 295 294 293 292 292 292 292 292 292 293 293 294 295 296 298 299 301 302 303 304 304 304 305 306 307 310 312 314 316 317 319 320 321 321 322 323 323 324 325 326 327 329 330 331 331 329 328 329 331 330 330 331
309 309 308 307 307 306 306 305 305 305 305 304 304 304 304 303 303 302 302 302 302 302 301 301 300 300 299 298 297 297 296 295 295 294 293 292 291 291 291 291 291 291 292 293 293 295 295 297 298 299 300 301 302 302 303 303 304 305 307 309 312 314 315 316 317 318 318 318 319 319 320 322 323 324 325 326 328 329 329 329 329 330 329 329 330
309 308 307 307 306 306 305 305 305 305 304 304 304 304 303 303 302 302 302 302 302 301 301 301 300 300 299 297 297 296 296 295 294 293 292 291 291 290 290 290 291 291 292 292 293 294 295 296 297 298 299 300 300 301 301 302 303 304 305 306 307 309 311 312 313 314 314 315 316 317 318 319 320 321 322 323 324 326 327 328 329 329 329 330 330
308 307 307 306 306 306 305 305 305 305 305 304 304 304 303 303 303 302 302 302 301 301 301 301 300 300 298 297 297 296 296 295 294 293 292 291 290 290 290 290 291 291 291 292 293 294 295 296 297 298 299 299 299 300 300 301 301 302 303 303 303 305 307 309 311 312 312 314 315 316 317 318 319 320 321 323 324 325 326 327 329 330 330 330 330
308 307 307 306 306 306 305 305 305 305 304 304 304 303 303 303 303 302 302 302 301 301 301 301 300 299 298 297 297 297 296 295 293 292 291 290 290 290 290 291 291 292 292 293 294 296 297 297 297 297 297 297 298 298 299 299 299 299 299 300 301 303 305 306 309 310 311 313 314 316 317 317 318 319 321 323 324 325 326 327 329 331 330 329 330
308 307 307 306 306 305 305 305 304 304 304 304 304 303 303 303 303 302 301 301 300 300 301 300 300 299 298 297 297 297 295 294 292 291 290 290 290 290 291 292 293 294 293 294 296 298 298 296 296 296 295 295 296 297 296 296 296 296 297 299 301 303 305 306 308 309 311 313 314 315 316 316 317 318 319 320 321 322 324 326 328 328 327 327 328
308 307 306 306 306 305 305 304 304 304 304 304 304 303 303 303 303 302 301 300 300 300 300 299 299 299 298 297 296 296 294 294 293 291 290 289 290 290 292 293 294 295 295 296 297 298 297 295 295 295 295 294 294 295 295 294 294 295 296 298 300 301 303 304 306 307 310 312 314 315 316 316 317 318 318 319 319 320 322 324 325 327 327 327 327
307 307 307 306 305 305 305 304 304 304 304 303 304 304 303 302 302 301 300 299 299 299 298 298 298 298 297 296 295 294 294 293 292 291 289 289 290 290 291 293 294 295 295 296 297 297 296 295 295 294 294 293 293 293 293 293 293 293 294 295 297 298 298 300 302 304 306 308 309 310 311 313 315 316 317 318 320 320 321 322 323 325 327 327 327
308 307 307 306 306 305 304 304 305 304 303 303 304 303 302 300 300 300 299 298 297 297 297 297 297 297 296 294 293 294 293 292 291 290 289 288 289 290 291 292 294 295 295 296 297 297 296 295 294 294 293 293 292 292 292 292 291 292 292 293 293 294 295 297 299 300 302 303 303 305 306 308 310 312 313 315 317 317 317 318 319 320 321 323 324
308 307 306 306 305 305 305 305 304 303 303 304 303 303 301 299 299 299 298 295 295 294 294 295 295 294 293 292 292 293 292 291 290 289 288 287 287 289 290 292 293 294 295 296 298 297 296 295 294 293 293 292 292 291 291 291 290 290 290 291 291 292 293 294 296 298 299 300 301 302 303 305 308 309 310 311 311 312 312 313 314 315 316 318 321
308 307 306 306 306 305 305 305 304 303 304 304 302 302 301 299 298 299 296 293 292 291 291 292 292 292 292 291 291 292 292 290 288 287 287 287 287 287 288 290 292 293 294 295 297 296 295 294 293 293 292 292 291 291 290 290 289 289 289 289 290 290 291 292 293 294 296 298 299 300 301 303 304 306 307 308 307 307 309 310 312 313 314 315 315
307 307 306 306 306 305 305 304 304 304 304 303 302 302 301 299 299 299 296 293 292 291 289 289 288 289 291 291 290 291 290 288 287 287 287 287 287 287 288 289 292 293 294 295 295 295 294 294 293 292 291 291 290 290 289 289 289 288 288 288 289 289 290 291 291 292 294 295 297 298 298 299 300 302 303 304 304 305 306 307 309 310 311 310 309
307 306 306 305 305 305 305 304 303 304 304 303 301 301 300 298 298 297 295 293 293 292 290 288 286 287 290 290 289 289 288 286 286 287 287 287 287 287 288 289 291 293 293 293 293 293 293 293 292 291 290 289 289 289 289 288 288 288 288 288 288 288 289 289 290 291 292 293 294 295 296 297 298 298 299 300 301 303 303 304 305 305 305 305 304
307 306 306 305 305 305 305 303 302 303 303 302 301 301 299 297 296 296 295 294 293 293 291 288 286 286 287 288 288 287 286 285 286 287 287 288 288 288 288 289 289 290 291 291 291 291 291 291 290 289 289 288 288 288 288 288 288 287 287 287 288 288 288 289 289 290 291 291 292 293 294 295 296 296 297 297 298 300 301 302 303 303 302 302 302
306 306 305 306 305 305 304 303 302 302 302 301 300 300 299 297 295 294 294 294 294 293 291 289 286 286 286 286 286 286 285 286 287 287 288 289 289 289 289 289 289 289 289 290 290 290 289 289 289 289 288 288 288 288 287 287 287 287 287 287 287 288 288 288 289 289 290 290 291 291 292 293 293 294 295 295 296 297 298 299 301 301 302 302 302
306 305 305 305 305 304 303 302 301 301 301 301 300 299 299 298 296 294 293 293 293 293 292 289 287 286 286 285 285 286 286 286 287 288 288 289 290 290 290 290 289 289 289 289 289 289 289 289 288 288 288 288 288 288 287 287 287 287 287 287 287 287 288 288 288 289 289 290 290 291 291 291 292 293 293 294 294 294 295 296 297 298 299 299 300
306 305 305 305 305 305 303 302 302 302 301 300 299 298 297 297 297 296 294 293 292 292 292 291 289 288 287 286 286 287 287 287 288 288 289 289 290 291 291 291 290 289 289 289 289 289 289 288 288 287 287 288 288 287 287 287 287 287 287 287 286 287 287 288 288 288 289 289 290 290 291 291 291 292 292 292 293 293 293 294 294 296 297 297 297
306 305 305 304 305 305 304 304 303 302 301 300 299 298 297 296 296 296 296 295 294 294 294 292 291 290 289 288 287 288 289 288 288 288 289 289 290 290 290 290 290 289 289 289 289 289 288 288 287 287 287 287 287 287 287 287 286 286 287 286 286 286 287 287 288 288 288 289 289 290 290 291 291 291 291 292 292 292 292 292 292 293 294 295 295
306 305 304 304 304 304 304 303 303 302 301 299 298 297 296 296 295 295 295 296 295 295 295 294 292 291 290 289 289 289 290 289 289 289 289 289 289 290 290 290 289 289 289 288 288 288 288 288 287 286 286 286 286 286 287 287 286 286 286 286 286 286 286 287 287 288 288 288 289 289 290 290 290 291 291 291 291 292 292 292 291 292 292 293 294
306 305 304 304 304 303 302 303 302 301 300 298 296 296 296 296 295 295 295 295 294 294 295 294 292 292 291 291 291 291 290 290 290 289 289 289 289 289 289 289 289 289 288 288 288 288 288 287 287 286 286 286 285 286 286 286 286 286 286 286 286 286 286 286 287 288 288 288 288 289 289 289 290 290 290 290 291 291 291 291 291 291 291 292 293
306 305 304 304 304 303 302 302 302 301 300 297 295 295 296 296 295 295 295 295 294 294 295 295 293 293 292 292 291 291 291 291 290 290 289 289 289 289 289 288 288 288 288 288 288 288 288 287 287 287 286 286 285 285 286 286 286 286 286 286 286 286 286 286 287 287 288 288 288 288 289 289 289 289 290 290 290 291 291 291 290 290 290 291 292
306 305 304 304 305 304 303 302 301 301 300 297 296 296 296 296 295 295 296 295 295 295 295 294 293 292 291 290 290 291 292 291 290 290 289 289 288 288 288 288 288 288 288 288 288 288 288 287 287 287 287 286 286 286 286 286 286 286 286 286 286 287 286 286 287 288 288 288 288 288 288 289 289 289 289 289 290 290 290 290 290 290 289 290 291
306 305 304 304 304 304 304 303 302 301 299 298 297 297 296 295 294 295 296 296 296 295 295 294 292 291 289 288 289 291 291 291 290 289 289 289 288 288 288 287 288 288 288 288 288 288 288 287 287 287 287 287 286 286 286 286 286 286 286 286 286 287 287 287 287 288 288 288 288 288 288 288 289 289 289 289 289 289 290 290 290 290 289 289 290
306 305 304 303 303 304 304 303 303 301 300 299 298 297 296 295 295 295 295 296 295 294 294 293 291 289 287 287 288 290 290 290 290 289 288 288 288 288 287 287 287 287 287 287 287 287 287 287 287 286 286 287 287 286 286 286 285 285 285 285 286 286 286 286 287 288 289 288 288 288 287 288 288 289 288 288 288 289 289 289 289 290 289 289 290
306 305 304 303 303 303 303 303 302 301 300 299 298 297 296 296 295 294 295 295 295 294 293 292 290 288 286 286 288 290 290 289 289 289 288 288 287 287 287 286 286 286 286 286 287 287 287 286 286 286 286 286 286 286 286 285 285 285 284 285 285 285 285 286 286 287 288 288 288 288 287 287 288 288 288 288 288 288 288 288 289 289 289 289 290
306 305 304 303 303 302 302 302 301 301 300 300 299 297 296 295 295 294 294 294 294 294 294 292 290 288 286 286 288 290 290 289 289 288 288 288 287 287 287 286 286 286 286 286 286 286 286 286 286 286 286 286 286 286 285 285 285 284 284 284 284 284 284 285 285 286 287 288 288 288 287 287 287 288 288 288 288 288 288 288 288 288 288 289 290
306 305 305 304 303 302 301 301 301 301 300 299 299 298 296 295 295 295 294 294 294 294 294 293 291 289 287 288 289 290 290 289 289 288 288 287 287 287 286 286 286 286 285 285 285 285 285 285 285 285 285 285 285 285 285 284 284 283 283 283 284 284 284 285 285 286 286 287 288 288 288 287 287 287 288 288 288 288 287 287 288 288 288 288 289
305 305 304 304 303 302 302 301 301 301 300 300 299 297 295 295 295 294 294 294 294 293 294 293 292 291 291 291 291 291 290 289 289 288 288 288 287 287 286 286 286 285 285 285 285 285 285 285 285 285 285 285 284 284 284 284 283 283 283 283 284 284 284 285 286 286 286 287 288 288 288 287 287 287 287 287 287 287 287 287 287 288 288 288 289
305 304 304 304 303 303 302 301 301 301 300 299 298 297 295 294 294 294 295 295 294 293 294 294 293 292 292 292 292 291 291 290 289 289 289 288 288 287 287 286 286 285 285 285 285 284 285 285 285 284 284 284 284 283 283 283 282 282 283 284 284 284 285 286 287 287 287 288 288 287 287 287 287 286 286 287 287 287 287 287 287 287 287 288 288
305 304 304 303 303 303 303 302 301 301 300 299 299 298 297 295 294 294 295 295 294 294 294 293 293 292 293 292 291 291 291 290 289 289 288 288 288 287 287 286 286 285 285 285 285 284 284 284 285 284 284 284 283 283 282 282 282 283 283 284 284 285 285 286 287 287 288 288 288 287 287 287 287 286 286 286 287 287 287 287 287 287 287 287 287
305 304 303 303 303 303 303 302 301 301 301 300 299 298 297 296 295 295 295 295 294 294 294 294 293 293 293 292 292 291 291 290 289 288 288 288 288 287 287 286 286 286 285 285 285 284 284 284 284 284 284 283 283 282 281 282 283 283 284 284 284 285 285 286 287 287 288 288 288 288 287 287 287 287 287 287 287 287 287 287 287 287 287 287 287
304 303 303 303 302 302 303 303 302 301 301 300 299 298 297 296 296 295 295 295 294 293 294 294 293 293 293 292 292 291 291 290 289 289 288 288 287 287 286 286 286 286 286 285 285 285 284 283 283 283 283 283 282 281 281 282 283 284 284 285 285 285 286 286 287 287 288 288 288 288 287 287 287 287 287 287 287 287 287 287 287 287 287 287 287
303 303 303 302 302 302 302 302 302 302 301 301 300 298 297 296 296 296 295 295 294 293 293 293 294 294 293 292 292 291 291 290 290 289 289 288 287 287 287 286 286 286 286 285 285 285 284 284 283 283 282 282 282 281 280 281 283 284 285 285 285 286 286 287 287 287 288 288 288 288 288 287 287 287 287 287 287 287 287 288 288 287 287 287 287
303 303 302 301 301 301 301 302 302 302 301 301 300 299 297 297 296 296 295 295 294 293 293 293 294 294 293 292 292 291 291 290 290 290 289 288 288 287 287 287 286 286 286 285 285 285 284 284 283 283 282 282 281 280 280 281 282 284 285 285 286 286 286 287 288 288 288 288 288 288 287 287 287 287 287 287 287 287 287 287 288 288 287 287 287
Wind_Speed
9 8 5 5 7 5 6 9 11 11 12 12 12 13 13 14 14 15 15 16 16 16 17 17 17 17 17 17 18 18 19 19 19 20 21 23 24 22 19 19 20 20 21 23 23 24 25 27 27 27 27 28 29 28 29 30 31 32 31 29 30 32 32 26 15 14 25 31 30 32 32 29 29 31 29 26 26 29 31 27 27 30 30 29 30
12 10 6 7 6 3 5 9 11 11 12 13 13 13 13 13 14 15 16 16 16 17 17 17 17 18 18 18 18 18 18 19 19 19 19 21 23 23 21 20 20 21 21 22 23 24 25 26 27 27 27 28 28 28 28 29 29 30 31 29 30 32 33 30 22 14 19 28 30 29 29 28 27 28 28 26 27 30 30 27 28 29 27 27 28
14 10 7 5 2 2 6 9 10 11 13 14 13 12 13 14 15 15 16 16 17 17 17 18 18 19 19 20 19 18 18 19 19 19 18 19 21 23 24 23 22 22 22 21 22 24 25 27 26 26 27 28 28 28 28 28 28 27 29 31 31 31 32 32 28 20 18 25 29 27 27 28 28 28 29 30 32 33 30 28 30 30 26 24 26
13 9 4 1 2 4 7 8 9 11 13 13 12 12 13 14 15 15 16 16 17 17 18 18 18 19 19 19 19 19 19 18 18 18 19 21 20 20 22 24 25 24 23 22 22 23 24 27 26 25 27 28 27 28 28 29 28 27 28 30 30 30 32 33 31 28 24 24 27 28 28 29 29 29 28 27 29 30 28 25 24 26 27 26 26
4 2 1 3 5 7 8 9 10 11 13 12 11 12 14 15 15 15 16 17 17 18 18 18 18 18 18 18 19 20 19 19 19 18 17 20 22 22 22 22 22 22 22 21 21 20 21 24 25 25 26 27 26 26 26 26 27 28 28 29 30 30 30 31 30 30 29 25 25 28 29 28 27 27 26 25 25 26 27 26 26 27 30 30 30
4 2 1 3 7 8 8 9 10 11 11 11 11 13 13 14 16 17 17 18 19 19 19 19 19 19 18 18 18 19 20 20 20 19 18 18 20 21 20 19 20 21 22 22 22 21 22 23 24 24 25 26 26 26 26 25 24 26 26 27 30 30 30 32 30 28 28 27 26 26 27 27 25 25 26 25 23 24 26 28 30 32 33 33 34
4 2 1 6 8 8 9 9 10 10 10 10 11 13 13 14 16 17 17 18 19 20 20 21 22 23 21 20 19 18 19 20 20 19 18 18 17 18 21 23 24 23 22 22 22 22 23 24 25 26 26 26 27 26 26 25 24 27 28 26 26 26 27 30 30 28 27 26 25 24 25 26 26 26 28 28 24 24 25 25 25 28 29 29 30
1 1 4 7 8 8 9 9 9 10 11 11 11 12 13 13 14 15 17 18 18 18 19 20 21 21 21 21 21 20 20 20 19 18 16 18 20 22 23 23 23 22 22 22 22 22 23 24 26 27 26 26 28 29 30 30 30 31 31 30 27 25 23 24 25 26 25 21 20 21 23 24 25 25 26 25 21 21 24 25 22 24 28 28 28
2 5 7 8 8 8 8 9 9 11 12 11 11 12 13 13 14 16 17 16 15 17 19 19 19 19 19 19 19 19 20 19 17 17 18 20 22 22 20 18 18 20 22 22 22 23 24 25 26 28 29 31 33 34 35 34 33 32 31 29 28 26 24 22 22 22 20 15 16 19 19 20 22 21 21 22 21 22 25 24 21 24 28 29 29
6 7 7 8 8 8 8 8 9 11 11 10 11 12 12 14 16 17 15 14 15 18 19 19 19 19 19 18 18 17 18 17 16 18 20 20 20 19 19 17 17 18 20 21 23 24 25 27 28 29 32 35 35 34 33 32 30 30 30 30 28 26 24 22 21 22 19 14 14 16 14 15 20 21 20 21 23 24 24 21 20 23 23 20 22
7 7 7 8 8 8 8 8 9 10 9 10 12 12 13 15 16 14 13 15 17 19 19 19 19 19 18 18 18 17 17 16 17 18 18 18 19 21 21 19 17 17 19 21 23 25 26 27 27 28 29 31 31 31 31 31 30 30 31 30 27 25 24 22 21 22 20 16 15 16 14 14 20 21 20 21 22 23 24 23 20 19 18 13 12
6 6 7 8 8 7 6 7 9 10 9 10 11 12 14 15 13 12 14 16 17 18 18 19 18 18 18 18 17 17 17 17 18 19 20 21 22 23 23 20 18 18 19 21 24 25 25 26 26 26 26 27 28 29 30 30 30 30 29 29 27 25 24 24 23 23 23 19 16 17 17 17 18 19 19 20 22 23 24 24 22 19 18 15 12
6 7 7 7 7 5 5 7 10 9 9 10 11 13 15 13 12 14 15 16 17 18 18 19 19 18 18 17 18 17 17 17 18 20 22 23 23 23 23 21 18 19 21 23 24 24 24 25 24 24 24 24 26 27 27 28 28 28 27 26 26 25 23 23 22 23 25 23 19 20 21 19 19 21 21 20 20 20 20 20 21 20 20 19 18
6 6 6 6 5 4 6 8 8 9 9 10 11 12 13 13 14 16 17 17 17 18 19 19 19 19 18 18 19 18 18 18 19 20 22 23 23 24 24 21 20 22 22 22 23 22 22 23 23 23 24 24 25 26 27 28 28 28 28 27 26 25 24 23 23 23 26 28 26 27 27 24 22 23 23 22 21 21 19 19 19 20 20 21 20
5 5 6 5 4 5 6 6 7 8 9 10 12 12 12 15 16 16 16 15 16 18 19 20 20 20 19 19 19 18 18 19 20 21 20 21 23 23 22 20 20 22 22 21 22 22 22 22 22 23 24 24 24 25 25 25 25 26 26 26 26 25 24 25 25 25 26 26 26 29 30 29 29 29 28 27 26 25 23 23 24 24 23 22 22
5 5 5 4 4 6 5 5 7 8 9 11 13 14 14 15 15 15 14 15 16 18 19 19 20 20 19 19 20 20 20 19 20 20 19 21 22 21 19 19 20 21 21 21 21 21 21 22 22 22 23 23 24 24 24 24 24 22 21 21 22 22 22 23 24 24 25 26 27 29 28 28 29 30 30 30 29 28 25 23 24 23 20 18 18
5 5 5 4 5 4 4 5 6 7 9 11 12 13 14 13 13 13 14 15 16 17 18 18 19 19 19 20 20 21 20 20 20 20 21 22 23 21 18 19 20 20 20 20 20 20 21 21 21 21 22 22 23 25 26 25 22 19 17 17 18 19 20 20 20 19 20 22 24 26 26 25 27 28 29 29 29 29 26 22 22 20 16 11 10
5 5 4 4 4 3 3 4 5 6 8 10 10 12 12 12 12 12 13 15 16 17 18 18 19 19 19 19 19 20 20 19 19 21 22 23 23 21 18 18 19 19 19 19 19 19 20 20 21 21 20 19 20 23 24 24 22 19 17 16 16 17 18 17 15 14 15 15 17 18 19 19 21 23 26 28 30 30 28 25 24 22 17 12 11
4 4 4 4 3 3 3 2 2 5 7 6 7 10 11 10 11 12 12 14 15 16 17 18 18 18 18 18 18 19 20 19 19 20 22 23 23 21 18 18 19 18 18 19 18 19 19 20 20 20 18 18 21 24 24 24 22 20 18 15 14 15 15 14 14 15 17 19 20 20 19 18 18 19 20 22 25 28 31 31 29 25 20 18 17
4 4 4 3 4 4 3 1 1 5 6 4 6 10 10 6 8 10 11 12 14 16 16 17 17 17 17 18 18 17 18 19 19 20 21 22 22 22 19 17 17 17 17 18 19 20 20 19 18 18 19 22 26 26 24 22 19 16 14 13 13 15 17 19 20 20 20 21 22 23 22 21 21 21 21 21 22 24 28 31 30 29 26 24 22
4 4 4 5 5 3 1 2 2 5 6 5 7 9 8 5 6 8 10 10 12 14 15 16 16 16 17 17 17 17 17 19 19 19 20 22 24 23 19 16 17 17 18 19 20 20 19 17 16 17 20 24 25 23 20 17 15 13 12 12 15 17 20 22 24 24 23 21 21 21 20 20 20 21 21 22 23 22 24 26 28 30 31 28 26
5 5 6 5 3 1 1 0 2 4 5 6 7 7 8 5 4 5 8 9 10 12 13 14 15 16 16 16 15 16 17 18 18 19 21 24 25 22 20 20 21 19 19 20 20 18 15 14 15 15 18 21 19 17 16 16 15 14 14 15 17 18 19 21 23 23 22 20 18 18 18 17 18 19 19 20 21 21 22 24 26 27 29 30 28
6 6 6 4 2 2 2 2 3 4 6 7 5 5 7 5 4 5 6 8 10 11 12 13 14 15 16 15 15 16 17 18 18 19 22 25 23 21 22 23 22 18 17 18 19 17 15 16 16 15 17 19 17 14 15 16 16 15 15 15 14 13 14 16 17 18 18 17 17 18 19 18 18 19 20 20 21 20 20 21 21 21 24 27 27
7 6 5 5 4 5 4 3 4 6 6 5 4 4 5 4 4 4 6 8 10 11 12 12 13 14 15 15 15 16 18 19 18 20 23 24 22 22 23 23 20 16 15 15 16 15 15 16 17 15 16 17 16 14 15 18 19 17 16 15 13 12 13 13 13 14 13 13 12 13 14 15 16 17 18 20 21 23 23 22 22 20 20 20 20
8 7 7 7 7 6 4 4 6 5 3 3 5 4 3 3 3 4 6 8 9 10 11 11 12 13 13 15 15 16 18 19 19 22 23 22 22 23 23 22 19 17 16 16 14 12 13 15 15 16 16 17 17 16 16 19 21 21 20 19 17 17 16 15 14 13 12 12 12 12 13 14 15 14 15 16 15 16 17 18 18 17 15 13 11
10 9 8 7 6 5 5 6 4 3 3 4 5 3 0 3 4 4 5 7 8 9 10 10 11 12 12 13 14 16 17 18 20 25 26 24 24 24 23 21 20 19 20 19 13 10 14 17 16 17 18 17 18 18 18 20 22 23 24 23 21 20 19 18 15 13 12 12 13 13 14 16 17 17 17 17 15 14 15 16 16 15 14 13 11
11 10 8 7 7 7 7 6 3 4 5 6 4 2 3 4 3 3 5 6 7 8 9 9 9 10 11 12 13 15 15 17 21 28 29 27 26 25 23 22 22 21 23 22 17 14 16 18 17 17 17 17 18 19 20 21 23 25 26 25 24 23 22 20 17 15 14 14 14 14 14 14 14 15 16 16 16 16 17 17 16 16 16 16 14
11 10 10 9 8 8 7 5 4 6 7 5 3 2 4 4 3 3 3 5 5 5 6 7 8 8 9 10 12 13 14 16 21 25 25 24 25 25 24 24 24 22 22 21 18 15 16 17 17 17 17 17 18 19 20 21 23 25 27 29 30 30 28 26 25 23 20 17 16 16 15 13 12 12 12 12 14 15 14 12 11 12 12 11 9
11 10 10 9 8 7 6 6 5 7 6 4 4 6 5 3 4 4 1 2 4 6 6 6 7 7 6 7 9 10 12 15 18 19 18 18 20 22 23 24 21 19 18 17 15 15 15 16 16 17 17 17 17 18 19 21 22 25 29 33 34 34 32 29 28 27 25 22 20 19 19 17 17 16 15 14 15 15 14 11 9 8 9 11 13
11 11 10 9 9 9 8 6 5 6 6 4 6 9 7 5 6 6 3 1 3 5 6 8 10 9 6 4 5 7 10 13 15 14 14 16 17 18 21 23 20 16 15 16 16 15 15 15 16 17 17 17 17 17 18 19 20 22 26 30 31 31 32 30 28 27 27 25 24 23 21 20 20 20 19 17 17 17 18 18 18 17 18 17 16
12 12 11 11 11 10 8 6 6 6 5 4 5 9 9 8 7 7 4 1 2 4 5 8 10 11 10 7 5 7 10 12 12 12 13 14 16 16 18 21 22 19 17 17 17 16 15 15 15 16 17 17 18 18 18 19 20 21 25 29 30 29 31 31 28 27 27 27 27 27 26 23 22 21 21 20 19 19 21 21 22 22 21 20 18
13 12 11 11 12 10 8 6 6 6 6 5 5 7 10 10 9 8 6 3 3 3 3 5 7 9 11 10 9 9 11 11 11 11 12 13 14 14 14 16 20 21 18 17 16 17 16 15 15 16 17 17 18 19 19 21 21 22 25 28 27 27 29 29 27 27 28 27 27 28 28 27 25 24 23 23 22 22 22 22 22 21 20 19 19
13 12 10 10 12 11 8 7 8 8 7 6 4 4 6 9 10 9 8 6 5 5 4 1 3 6 9 10 10 12 13 13 13 13 12 13 14 13 12 12 16 19 19 19 18 17 17 16 16 17 17 17 18 20 21 21 21 21 22 24 24 24 25 26 26 28 29 28 27 27 28 28 28 26 26 25 24 23 23 23 22 21 20 19 19
13 12 10 8 9 9 9 9 9 8 7 5 4 4 4 3 4 7 9 9 8 8 8 6 2 1 5 7 9 11 13 14 14 14 14 15 15 13 11 11 13 16 19 19 18 17 17 17 17 18 18 19 19 20 21 21 21 21 22 23 24 24 24 24 26 28 28 27 27 27 27 28 28 27 26 26 25 24 25 25 24 22 21 20 19
13 13 11 9 7 7 7 8 8 7 6 5 5 5 4 3 3 4 6 7 8 9 10 9 6 2 2 4 6 9 11 12 14 15 15 16 15 14 13 13 13 16 18 19 18 18 17 17 17 18 19 19 20 20 20 21 22 22 21 22 23 24 24 25 25 26 27 27 27 27 27 27 27 27 26 26 26 25 24 24 25 24 22 21 20
13 12 13 13 11 9 7 7 7 7 7 5 4 4 3 4 4 4 5 5 3 3 6 8 6 3 2 2 4 7 8 9 11 13 14 15 15 14 14 14 13 14 16 17 17 17 17 17 17 18 19 19 20 20 20 20 21 21 20 20 21 22 23 24 25 25 26 28 28 28 27 26 25 26 26 27 27 25 24 25 26 26 26 24 21
14 13 12 14 14 12 10 9 8 8 8 6 4 4 6 6 5 5 5 3 1 2 2 7 7 6 5 2 3 6 6 6 8 11 12 12 13 13 13 13 13 12 14 15 16 16 17 17 18 18 19 19 19 19 19 18 18 19 19 19 19 20 21 23 24 24 24 26 27 27 26 26 25 25 25 25 26 26 26 26 26 27 27 25 23
15 14 12 12 14 13 12 10 9 10 8 6 6 8 8 6 6 6 5 4 3 2 2 3 4 3 3 0 2 4 4 3 6 8 9 10 11 12 11 12 12 12 12 13 14 14 15 16 16 17 17 18 18 18 18 17 17 17 17 17 17 18 20 22 24 23 22 23 24 24 24 25 25 25 24 24 24 24 24 24 24 25 24 24 23
15 15 13 12 13 13 12 11 10 10 9 8 10 10 8 6 6 7 6 5 5 4 3 2 3 2 1 1 1 2 3 4 5 6 8 9 10 10 10 11 11 12 12 12 12 13 13 14 15 15 15 16 17 16 17 16 15 15 15 15 15 16 18 21 23 22 21 22 24 23 22 22 23 25 24 24 24 24 22 20 21 22 22 21 21
16 16 15 14 14 13 12 11 10 10 10 11 11 10 9 8 8 8 7 6 5 4 3 2 4 2 1 1 2 3 4 5 5 6 7 7 8 9 10 10 10 11 11 11 12 12 12 12 13 13 14 15 15 15 16 16 14 13 14 14 14 14 15 18 21 21 19 21 23 24 23 21 21 23 24 23 23 22 20 18 19 21 22 22 21
15 16 18 18 16 14 12 11 10 10 10 11 11 10 9 10 9 7 7 6 5 5 4 4 4 3 3 3 5 6 5 4 5 6 6 6 7 8 9 9 9 9 10 10 11 11 11 11 11 12 13 13 14 14 14 15 15 14 14 14 14 14 14 16 19 20 19 20 22 24 24 23 21 20 21 21 21 21 21 19 19 19 19 21 21
15 15 18 21 21 18 15 13 12 11 11 11 11 11 10 10 9 8 7 6 6 6 6 6 5 4 3 5 7 6 6 5 4 5 5 5 6 7 7 8 8 8 9 9 9 10 10 10 10 11 12 13 13 13 14 14 15 15 14 13 14 15 15 16 19 20 19 20 20 22 24 24 22 20 19 19 20 21 21 20 19 19 19 19 21
17 15 16 20 22 21 18 15 14 14 14 13 12 11 10 10 10 9 8 7 7 8 8 8 7 5 4 6 6 6 5 4 4 5 5 5 5 6 6 6 7 7 8 8 9 9 9 9 10 10 11 12 12 13 13 14 14 14 14 13 14 15 17 17 19 20 20 20 19 19 21 22 22 20 19 19 19 19 20 20 20 20 21 20 21
19 17 17 19 21 20 18 16 15 15 15 14 13 13 11 10 10 10 9 9 9 8 9 9 10 8 7 6 5 5 4 4 4 5 5 5 5 5 5 6 6 7 7 8 9 9 9 9 10 11 11 12 12 12 13 13 13 13 13 13 14 16 18 19 19 20 20 19 17 17 18 20 21 20 19 19 19 18 19 20 20 20 21 22 21
21 19 18 19 19 18 17 17 16 16 15 15 14 13 12 12 11 11 11 11 11 10 10 10 10 10 10 8 7 6 6 5 5 4 4 4 5 5 5 5 5 6 6 7 8 9 9 9 11 12 12 12 13 13 13 13 13 13 13 14 16 18 19 19 19 20 19 17 16 17 17 18 20 21 19 19 19 18 18 19 20 19 20 22 22
23 21 19 19 19 18 17 17 17 16 15 15 14 14 13 13 13 13 12 12 12 11 11 10 10 10 10 9 8 7 7 6 6 5 4 4 5 5 5 5 5 5 6 6 7 8 9 8 9 11 12 12 13 12 12 12 12 12 13 14 16 18 19 18 19 20 19 15 15 17 17 17 18 20 19 18 18 18 18 19 21 21 21 22 22
22 21 19 18 18 18 17 17 17 17 16 15 15 14 14 14 14 14 13 12 12 12 11 10 10 10 10 9 9 8 8 8 7 6 6 5 5 5 5 5 4 4 5 5 6 6 7 7 8 9 10 11 11 11 12 13 13 12 13 13 15 17 18 18 18 19 18 15 14 15 16 15 16 18 19 19 18 18 18 18 20 21 21 21 22
20 19 17 17 17 17 17 17 18 18 17 16 15 15 15 15 15 14 14 13 12 12 12 11 12 12 11 10 10 10 9 9 8 8 7 7 6 6 5 5 5 4 4 5 5 5 6 7 8 8 9 10 10 11 12 13 13 13 13 13 14 15 16 16 17 18 17 16 15 15 16 16 14 15 18 20 18 18 18 17 18 20 20 20 21
20 18 17 17 17 17 17 16 17 17 16 15 15 15 15 15 15 14 14 14 13 13 13 12 12 13 12 12 12 11 10 10 10 9 9 8 7 7 7 6 5 5 4 4 4 4 6 7 7 8 9 9 8 10 12 14 13 12 13 13 13 14 14 15 16 17 17 16 16 16 17 18 17 15 16 18 18 18 18 17 17 19 20 20 22
20 18 16 16 16 17 17 16 16 17 16 15 15 15 15 15 15 14 15 15 14 15 15 14 13 13 13 13 13 13 12 12 11 11 11 10 9 8 7 7 6 5 5 4 4 4 4 5 6 7 8 8 8 9 11 12 12 11 12 12 13 14 14 15 15 16 17 18 18 16 16 18 18 17 16 16 16 17 18 17 16 17 19 19 20
21 19 16 14 14 15 16 17 16 16 16 16 16 15 15 16 15 14 15 15 15 15 16 15 14 14 14 14 14 14 13 13 13 12 12 12 11 10 9 8 7 6 6 5 4 4 4 5 5 6 6 6 7 8 10 11 10 10 11 12 12 13 14 15 16 16 17 18 18 16 15 15 17 17 16 15 15 15 17 17 16 16 17 18 18
Wind_Direction
198 205 214 259 273 274 285 296 303 305 306 307 305 303 301 302 304 305 304 303 300 295 292 292 292 293 294 294 294 294 295 296 297 298 299 300 298 291 282 278 278 281 283 285 285 281 278 277 276 275 272 268 263 256 250 248 245 242 240 239 238 237 237 235 236 251 253 250 251 256 257 258 255 252 257 262 261 272 284 279 259 242 231 232 239
204 202 216 251 259 269 284 291 297 300 303 303 298 299 305 308 309 307 304 302 300 297 295 295 295 295 294 291 291 293 295 294 293 292 292 295 298 298 292 285 280 279 280 283 285 285 283 280 278 277 277 275 271 265 256 250 247 242 239 238 240 240 237 234 234 240 252 250 247 250 253 253 253 251 253 259 263 266 272 277 274 261 243 235 239
217 224 240 246 240 285 282 283 292 298 299 298 298 305 311 310 309 308 306 306 305 301 298 297 296 294 292 292 292 292 292 292 292 292 293 293 292 293 296 296 292 285 280 279 281 284 286 286 284 281 279 277 275 273 268 257 250 247 243 240 239 241 239 236 234 235 246 250 246 244 248 249 249 251 252 255 260 263 263 265 271 272 264 253 250
226 234 247 340 335 288 278 282 291 295 293 294 303 312 311 310 310 309 307 307 305 304 303 301 300 298 297 297 296 294 291 290 293 296 300 302 299 294 295 298 299 297 290 283 281 282 282 284 287 289 288 284 280 277 274 267 259 253 249 246 241 239 239 237 232 230 237 248 249 246 245 246 247 249 251 253 253 255 257 257 259 262 262 261 261
243 248 29 359 297 276 276 284 288 288 288 295 309 314 309 307 308 307 308 308 308 308 306 303 302 300 298 298 299 300 299 298 298 299 300 304 306 305 302 299 301 310 311 306 301 298 293 290 291 295 297 296 294 291 287 282 274 264 255 252 250 246 245 246 242 236 235 241 248 249 245 243 245 247 248 248 246 245 248 252 255 259 263 263 260
284 280 23 280 272 275 281 285 286 286 290 301 308 306 303 305 309 311 313 317 319 319 316 315 314 310 306 306 304 302 305 309 310 310 307 305 305 307 310 312 316 321 323 321 319 316 312 308 304 302 302 300 300 301 301 298 295 286 274 262 255 250 249 252 254 251 246 243 245 249 247 243 243 245 245 242 243 247 252 258 261 263 264 264 261
246 191 223 261 266 274 279 282 283 284 290 297 298 298 303 311 316 318 322 327 330 330 331 331 327 322 320 322 322 317 313 313 314 315 314 311 310 311 315 318 319 320 319 318 317 314 309 307 305 303 303 300 297 298 300 304 307 305 300 291 278 264 253 252 255 255 252 249 247 248 251 250 245 245 246 246 249 254 257 258 259 259 260 263 261
129 211 252 260 265 272 276 277 279 281 285 290 297 307 314 318 323 329 329 326 324 326 330 330 327 325 324 324 325 323 317 313 314 316 318 318 318 318 317 315 314 313 312 312 310 307 302 299 299 299 300 297 294 292 294 298 303 304 303 303 296 282 266 258 256 255 252 250 251 252 255 256 251 246 246 248 248 249 249 248 250 254 258 261 259
198 245 252 259 267 272 272 270 272 277 282 293 310 317 320 328 331 326 319 316 322 327 325 324 323 324 324 321 319 316 312 310 310 312 316 320 321 320 319 318 315 311 308 306 304 301 298 295 292 292 294 293 292 291 290 290 292 294 296 300 297 286 274 264 259 260 259 254 256 257 255 255 253 247 242 241 240 243 249 248 245 248 252 256 260
218 243 252 263 272 270 265 269 275 281 293 312 321 318 325 332 323 316 318 330 339 334 324 320 320 319 318 316 313 310 306 304 305 307 312 318 322 324 323 319 315 310 306 303 301 297 295 292 288 287 287 289 290 291 290 288 286 285 289 295 294 284 273 264 256 259 260 251 250 257 256 250 250 247 244 243 242 244 247 245 242 246 249 253 260
220 241 252 264 269 261 262 276 283 290 313 327 321 322 326 320 315 322 341 347 341 332 324 321 320 318 316 314 311 309 306 304 306 308 311 316 322 326 326 321 313 306 301 299 296 293 290 288 287 286 285 285 286 288 290 288 286 284 286 290 290 281 272 264 255 253 253 247 244 251 253 250 249 247 247 249 247 243 244 245 245 246 246 246 256
224 246 255 260 258 257 274 292 289 298 322 322 319 325 320 315 329 353 358 350 340 331 323 320 320 319 317 314 311 310 308 307 310 313 318 323 326 326 324 318 308 301 298 295 290 287 287 286 285 284 283 284 284 285 287 287 286 284 283 285 287 284 276 267 260 255 251 246 243 246 249 252 252 249 246 245 243 240 241 244 245 244 244 244 246
229 240 248 253 254 264 284 284 288 310 330 326 325 324 316 327 359 5 355 348 339 327 321 322 322 321 318 315 313 311 309 309 312 315 319 323 324 324 322 317 305 298 296 291 285 282 282 283 284 284 284 285 285 286 286 286 285 283 282 282 284 286 285 278 270 262 253 246 242 245 248 247 248 250 249 248 247 245 244 245 247 247 248 248 247
225 231 246 255 258 272 277 282 303 327 328 319 316 314 322 351 6 356 348 345 335 326 325 325 323 320 319 317 314 312 311 312 316 317 317 318 318 319 319 314 303 298 295 290 285 283 281 282 284 285 286 288 288 287 286 286 285 282 281 282 282 284 287 285 280 272 260 249 242 244 246 245 247 251 254 253 253 253 251 250 253 253 252 254 256
220 225 240 249 258 273 283 302 322 324 317 313 314 323 347 1 356 347 344 341 334 328 326 324 323 321 321 319 316 313 311 314 319 320 319 321 322 322 319 311 302 296 293 289 287 286 285 284 284 285 287 288 287 289 293 296 297 292 287 284 282 282 284 283 283 281 271 260 253 253 253 253 253 253 255 256 256 256 255 255 259 259 256 258 265
217 228 231 239 260 276 296 322 324 322 323 322 325 337 351 351 342 338 341 339 334 328 324 326 326 323 321 320 317 313 312 316 320 323 326 329 329 328 322 311 302 297 294 293 292 291 289 288 286 286 287 288 289 297 309 315 314 307 299 292 288 287 287 285 285 286 280 272 267 265 263 262 260 256 255 256 257 257 258 259 259 254 246 248 256
215 221 215 229 261 280 311 324 324 332 331 325 330 339 342 337 333 336 340 338 332 327 326 329 327 323 322 321 318 317 318 320 323 327 331 333 332 331 323 311 304 300 298 296 294 292 291 289 288 288 288 288 291 303 316 322 323 318 309 303 300 297 296 296 293 290 284 278 272 269 268 267 265 263 260 258 258 259 260 259 256 250 244 241 242
216 211 203 227 259 286 314 317 330 341 329 325 335 337 329 326 330 338 340 334 329 331 332 328 324 323 324 324 325 325 324 324 325 327 330 332 334 333 324 313 308 304 302 300 298 296 294 291 292 293 292 294 300 309 318 325 328 327 319 311 305 298 297 301 299 294 292 291 289 287 286 284 279 274 267 262 259 259 259 258 257 258 259 257 253
210 203 206 225 243 263 273 289 342 327 310 323 336 316 305 318 331 334 335 331 330 335 334 327 323 325 330 332 331 328 325 324 325 326 329 333 334 333 325 316 310 308 306 306 303 300 296 295 296 296 297 307 317 321 325 328 330 329 324 315 305 297 298 302 300 298 298 297 295 294 295 297 296 291 284 275 267 262 260 259 258 256 256 257 257
198 200 202 217 232 244 242 138 1 300 295 316 309 285 288 325 337 327 330 336 336 335 332 328 326 330 335 335 331 328 327 327 327 329 332 333 333 333 328 318 312 310 309 308 305 301 297 298 300 299 302 314 322 324 327 330 332 334 331 322 312 306 305 302 297 297 298 296 294 293 291 290 289 288 289 289 283 273 265 262 258 253 251 253 254
196 196 202 220 230 232 99 63 340 305 310 317 300 293 309 338 331 324 335 343 340 335 332 332 333 335 336 334 332 333 334 332 330 332 335 334 335 336 333 322 314 310 306 305 302 299 298 303 308 310 314 319 323 328 333 335 337 337 330 320 311 303 299 296 292 292 293 291 291 292 291 290 287 282 280 284 284 278 270 267 263 256 251 247 247
191 201 212 217 204 138 90 28 292 299 299 291 296 318 332 330 330 337 340 344 341 334 333 339 341 339 336 334 336 339 339 337 337 338 338 338 339 342 340 333 326 317 307 305 305 305 314 325 329 332 337 336 335 340 344 344 345 343 333 322 315 307 300 295 291 289 289 288 287 287 286 287 286 281 279 280 282 281 277 271 264 259 255 250 249
197 209 208 199 173 180 214 231 249 264 268 269 282 319 324 327 0 356 340 345 343 333 336 346 348 344 338 334 337 342 345 346 345 343 342 342 345 349 349 345 342 332 317 313 315 323 342 355 352 350 353 353 353 356 357 355 355 352 345 335 327 323 319 311 299 291 285 279 274 273 274 275 275 275 275 276 278 283 286 284 278 271 266 261 258
203 208 192 191 210 214 215 235 248 249 258 278 299 309 311 326 356 359 353 354 344 336 341 346 345 345 342 337 337 342 347 350 350 348 348 350 353 355 356 357 358 353 345 340 337 338 350 359 359 359 1 3 5 7 9 9 8 7 5 1 356 354 351 341 327 316 307 296 288 283 282 280 276 274 276 279 280 281 283 290 295 293 286 281 276
198 205 202 204 208 206 216 245 252 254 268 292 293 291 310 349 5 17 13 1 346 341 343 341 340 343 342 339 338 341 346 349 350 352 354 355 358 359 360 1 3 2 0 356 347 348 3 9 9 11 12 13 14 16 16 16 16 17 18 16 13 9 4 356 347 342 336 332 331 331 326 320 316 310 305 303 301 296 293 296 300 304 310 311 295
196 203 208 207 199 206 233 237 239 277 290 272 275 272 105 47 28 35 26 7 351 343 338 338 341 341 339 340 338 339 346 348 349 354 357 356 358 1 360 0 5 8 5 360 354 8 24 23 19 19 21 22 24 25 24 22 22 23 24 22 18 14 9 4 359 355 349 344 341 338 333 329 329 328 326 326 328 328 327 325 319 319 327 330 319
196 202 208 210 208 217 228 225 227 273 265 254 262 232 130 87 51 62 45 17 356 344 340 341 344 339 336 338 336 337 346 349 350 355 358 357 360 3 0 1 5 7 6 9 16 26 28 24 21 22 25 26 28 30 28 27 27 27 26 24 21 17 14 12 13 11 3 355 350 346 341 334 330 331 334 337 339 337 334 332 330 327 326 324 324
195 202 207 211 213 216 216 210 227 253 250 245 245 190 134 103 103 124 70 20 6 1 353 345 340 334 329 331 335 339 345 348 351 355 357 358 1 3 2 3 4 4 8 16 24 28 26 24 22 23 25 25 26 28 27 27 27 27 27 28 27 26 24 23 24 23 16 10 8 8 8 6 4 3 5 7 7 2 353 345 341 338 336 340 356
197 207 212 212 214 219 217 213 224 238 240 227 186 174 169 153 157 168 162 12 14 16 13 7 356 344 331 328 335 338 338 344 351 356 1 5 6 7 9 8 5 6 15 22 24 26 27 26 23 22 22 22 23 24 25 25 24 25 29 32 30 27 26 24 22 21 20 20 21 21 22 25 27 31 35 34 32 33 34 36 40 44 47 51 50
198 208 213 214 214 214 211 215 231 236 236 214 172 173 192 203 187 187 205 340 1 1 13 24 19 15 12 358 343 340 342 348 354 359 4 10 11 13 19 20 17 18 27 30 28 27 26 24 23 22 21 21 21 20 21 23 20 19 25 31 30 26 24 23 21 22 25 28 27 26 26 28 30 34 37 38 38 43 49 54 61 67 67 64 57
201 209 213 212 213 206 194 205 236 239 236 229 187 176 182 184 182 193 206 242 330 332 1 23 26 26 28 28 18 8 2 2 3 0 0 6 8 8 17 24 24 25 31 34 32 30 26 23 23 23 22 22 22 19 19 22 20 16 19 26 28 26 23 22 21 23 27 30 31 30 30 29 30 31 33 36 39 43 48 53 58 61 63 64 60
205 215 214 200 196 198 198 215 235 231 228 236 217 185 177 174 178 196 212 229 270 292 336 17 28 29 29 31 35 32 25 19 14 8 4 6 5 360 6 22 25 23 27 34 33 29 26 23 20 20 20 20 22 22 22 24 22 18 18 21 23 23 22 21 21 25 28 31 32 33 33 31 31 32 33 35 38 40 43 46 49 53 57 59 58
208 219 216 188 176 179 192 211 221 223 223 223 223 215 196 178 176 191 209 227 251 257 262 305 32 36 32 35 40 40 37 34 29 24 20 17 10 3 7 25 27 23 25 32 32 26 24 23 20 18 19 20 21 23 23 22 21 19 19 19 20 19 18 19 22 26 29 30 33 35 35 34 33 33 33 34 36 39 39 39 41 45 48 47 45
210 216 218 201 185 185 195 204 210 216 218 210 212 236 239 205 185 192 198 207 226 240 242 236 214 70 36 35 38 38 36 32 32 31 28 24 20 17 21 31 30 24 25 31 30 25 23 23 21 18 17 19 20 21 21 21 19 18 18 19 19 18 16 17 21 25 27 29 32 35 36 36 36 35 33 31 32 35 37 36 36 37 39 40 41
209 212 213 211 203 200 203 208 211 211 209 211 218 223 224 223 227 224 210 207 221 231 228 221 214 192 71 39 29 27 27 27 28 29 28 25 24 25 30 34 31 26 27 28 28 27 26 24 23 21 19 19 19 19 20 21 20 18 17 16 16 17 17 17 18 21 24 27 29 31 34 35 36 36 37 35 31 29 31 33 33 33 32 33 36
207 210 210 209 209 209 213 221 223 209 194 199 214 221 222 219 227 249 249 234 241 243 208 193 193 192 157 83 14 7 12 22 27 27 25 26 26 28 33 33 30 29 29 26 25 27 27 25 24 23 21 20 20 19 20 20 19 18 18 16 15 16 17 18 18 19 22 25 27 29 31 32 32 34 38 39 35 30 28 30 32 32 31 29 29
207 210 209 204 203 208 218 224 216 192 177 181 207 230 232 221 217 243 251 225 237 318 196 163 168 191 198 190 357 349 351 11 27 28 24 24 27 32 36 34 32 34 33 27 26 28 28 26 26 24 23 22 21 19 18 17 18 17 17 18 19 17 15 19 21 21 21 23 25 27 30 31 32 32 35 36 35 30 29 30 32 31 30 29 27
205 213 214 201 190 196 210 212 199 187 188 203 225 231 230 218 209 228 237 205 187 242 236 155 145 171 186 197 339 329 330 4 29 29 26 26 29 33 36 35 35 36 34 29 29 30 29 27 26 24 24 23 21 19 17 16 18 18 16 16 20 19 18 20 21 22 24 24 24 26 30 33 34 34 34 34 33 30 28 31 34 33 30 29 27
204 213 218 203 185 188 202 199 186 187 201 214 219 220 220 217 215 223 227 211 194 202 213 160 117 106 66 4 320 342 21 48 50 36 28 30 34 34 34 34 34 34 32 30 30 30 31 30 27 24 23 21 18 17 16 15 17 19 17 17 20 22 23 22 20 21 27 28 24 24 28 32 35 36 35 33 33 31 29 30 35 35 30 26 26
204 210 214 206 189 189 202 201 189 190 201 210 214 213 207 210 219 223 222 215 200 192 185 140 128 147 236 220 144 95 59 60 66 53 39 37 38 37 36 36 34 31 30 29 29 30 32 31 28 27 24 20 18 17 16 16 18 20 19 19 19 20 22 19 15 19 29 33 28 26 28 30 35 38 38 36 35 32 29 29 33 36 34 29 26
205 206 210 210 202 197 202 208 204 201 203 208 213 213 208 208 213 217 215 208 193 181 171 147 147 184 215 169 133 104 75 70 77 71 61 52 46 43 41 40 38 35 32 29 28 30 32 32 30 28 24 21 20 19 18 18 19 18 18 19 19 19 17 12 10 15 26 32 32 30 29 30 34 39 40 38 35 33 32 32 32 32 32 32 29
206 205 205 206 206 202 204 210 213 215 219 218 213 211 210 208 207 211 212 204 193 186 172 158 164 189 183 155 142 117 94 95 97 86 78 70 61 55 50 47 44 41 38 35 32 31 33 34 33 30 26 24 23 21 20 20 18 18 21 23 22 22 19 13 12 16 21 26 31 32 30 29 33 38 40 39 37 36 35 33 31 29 26 27 28
205 206 202 200 201 202 206 210 212 215 219 218 211 208 208 206 202 205 205 198 196 195 180 166 169 178 161 144 139 126 113 116 112 99 93 88 79 71 63 56 52 48 45 44 41 39 37 37 37 34 29 28 28 25 25 25 22 21 24 27 26 23 19 17 17 18 17 21 30 33 31 30 32 34 37 38 40 41 36 30 29 29 25 23 26
206 206 199 194 195 200 205 208 211 213 214 212 210 209 206 202 200 202 201 198 200 202 193 180 177 179 176 163 151 142 140 139 128 116 111 105 96 88 79 69 61 56 51 48 49 51 47 39 39 39 35 32 33 32 30 29 28 28 30 33 32 27 22 21 22 20 16 19 27 33 35 35 34 34 36 37 39 43 40 34 32 31 27 26 27
208 207 196 186 187 195 203 208 212 215 211 206 204 200 195 197 206 209 204 199 197 201 202 192 182 185 194 195 184 171 161 153 148 142 131 119 112 105 94 84 76 69 60 49 47 54 54 44 39 39 37 33 34 35 33 30 29 34 40 42 39 33 28 26 28 25 20 21 27 31 35 39 37 35 36 37 38 41 44 41 36 32 29 28 27
209 210 204 191 187 192 200 205 211 213 207 198 195 192 191 199 211 213 207 199 195 197 201 195 185 189 197 194 182 177 174 166 160 156 145 134 129 123 112 102 91 81 74 61 48 48 52 49 42 39 38 35 33 34 33 29 30 40 48 47 43 39 35 33 33 31 28 30 34 34 34 39 40 39 39 38 37 39 43 44 39 35 32 31 28
209 210 211 207 200 197 199 202 209 211 205 196 194 198 201 204 209 210 206 200 195 195 197 194 191 194 197 188 179 179 180 175 169 164 159 150 142 136 127 117 107 96 84 76 65 54 52 54 50 43 40 38 34 31 31 33 38 50 57 52 46 43 39 37 37 36 34 38 44 41 36 37 42 43 43 41 40 39 42 45 43 39 36 35 31
205 205 213 219 215 208 202 201 206 211 206 198 198 205 206 204 205 206 201 194 191 195 198 197 193 195 194 187 182 182 182 177 172 168 166 162 158 154 146 133 127 121 101 82 76 65 55 57 58 52 47 44 35 29 32 38 48 59 63 56 50 44 39 38 41 41 41 47 53 48 40 38 43 46 44 42 40 39 39 44 46 43 40 38 35
197 200 213 227 227 220 213 206 206 209 207 201 200 206 207 204 203 200 195 190 191 196 201 201 196 192 189 184 181 181 182 178 174 172 170 167 165 163 157 146 139 135 120 100 90 73 55 54 56 56 55 51 38 29 34 42 54 66 68 63 55 48 43 44 46 44 44 51 55 50 42 41 43 46 45 40 38 38 39 42 46 45 42 41 39
188 195 217 235 233 226 224 219 211 208 206 204 205 207 207 206 204 198 192 191 193 197 203 205 198 189 185 182 180 182 184 183 181 180 175 169 167 168 164 155 148 144 136 124 112 96 74 60 53 53 56 54 41 31 34 42 53 68 71 65 57 51 48 51 52 49 49 52 52 48 45 44 43 45 45 43 40 40 41 43 47 48 46 45 45
190 196 218 241 241 230 228 229 222 211 203 204 209 210 206 204 204 201 195 194 195 197 202 204 197 188 185 183 182 183 186 186 184 181 175 172 172 172 169 164 159 155 150 142 127 114 102 84 67 56 52 49 42 37 37 41 51 67 72 67 61 56 52 52 54 53 53 53 50 46 46 47 45 43 42 39 37 41 43 44 45 50 50 50 49